When you browse on this site, cookies collect data to enhance your experience and personalize the content and advertising you see.
Visit our Privacy Policy to learn more. By continuing to use the site, you agree to this use of cookies and data.
  • In Czech Republic
  • List of Countries
  • For 7 days
  • Water Temperature
  • Weather Map
  • Weather Widgets
  • user-avatar
    Login

    Hourly Weather Athens

    Today, 20 October, Sunday

    Time Temperature Precipitation Wind Pressure Humidity
    00:00 +20°C° 0 mm 0 mps 755 mmHg 78%
    01:00 +20°C° 0 mm 0 mps 755 mmHg 79%
    02:00 +20°C° 0 mm 0 mps 755 mmHg 79%
    03:00 +22°C° 0 mm 1 mps 755 mmHg 78%
    04:00 +21°C° 0 mm 1 mps 755 mmHg 77%
    05:00 +21°C° 0 mm 1 mps 755 mmHg 76%
    06:00 +22°C° 0 mm 1 mps 755 mmHg 73%
    07:00 +22°C° 0 mm 1 mps 755 mmHg 70%
    08:00 +21°C° 0 mm 2 mps 756 mmHg 66%
    09:00 +24°C° 0 mm 2 mps 756 mmHg 62%
    10:00 +25°C° 0 mm 1 mps 756 mmHg 58%
    11:00 +26°C° 0 mm 1 mps 756 mmHg 54%
    12:00 +26°C° 0 mm 2 mps 756 mmHg 52%
    13:00 +27°C° 0 mm 2 mps 756 mmHg 50%
    14:00 +27°C° 0 mm 2 mps 756 mmHg 48%
    15:00 +27°C° 0 mm 2 mps 755 mmHg 50%
    16:00 +26°C° 0 mm 2 mps 755 mmHg 51%
    17:00 +26°C° 0 mm 2 mps 755 mmHg 53%
    18:00 +25°C° 0 mm 2 mps 755 mmHg 56%
    19:00 +24°C° 0 mm 1 mps 756 mmHg 60%
    20:00 +24°C° 0 mm 1 mps 756 mmHg 64%
    21:00 +23°C° 0 mm 1 mps 756 mmHg 64%
    22:00 +23°C° 0 mm 1 mps 756 mmHg 64%
    23:00 +21°C° 0 mm 2 mps 756 mmHg 65%

    Tomorrow, 21 October, Monday

    Time Temperature Precipitation Wind Pressure Humidity
    00:00 +21°C° 0 mm 2 mps 756 mmHg 63%
    01:00 +21°C° 0 mm 2 mps 756 mmHg 62%
    02:00 +21°C° 0 mm 3 mps 756 mmHg 61%
    03:00 +20°C° 0 mm 3 mps 755 mmHg 61%
    04:00 +20°C° 0 mm 3 mps 755 mmHg 60%
    05:00 +20°C° 0 mm 3 mps 755 mmHg 60%
    06:00 +20°C° 0 mm 3 mps 755 mmHg 59%
    07:00 +21°C° 0 mm 4 mps 755 mmHg 58%
    08:00 +21°C° 0 mm 4 mps 755 mmHg 58%
    09:00 +22°C° 0 mm 4 mps 756 mmHg 53%
    10:00 +25°C° 0 mm 4 mps 756 mmHg 49%
    11:00 +26°C° 0 mm 4 mps 756 mmHg 44%
    12:00 +27°C° 0 mm 4 mps 756 mmHg 43%
    13:00 +27°C° 0 mm 5 mps 756 mmHg 42%
    14:00 +28°C° 0 mm 5 mps 755 mmHg 41%
    15:00 +27°C° 0 mm 5 mps 755 mmHg 44%
    16:00 +26°C° 0 mm 5 mps 755 mmHg 46%
    17:00 +26°C° 0 mm 5 mps 754 mmHg 48%
    18:00 +25°C° 0 mm 4 mps 755 mmHg 52%
    19:00 +23°C° 0 mm 4 mps 755 mmHg 57%
    20:00 +22°C° 0 mm 4 mps 755 mmHg 61%
    21:00 +21°C° 0 mm 4 mps 755 mmHg 61%
    22:00 +21°C° 0 mm 4 mps 755 mmHg 62%
    23:00 +21°C° 0 mm 4 mps 755 mmHg 63%

    Day after tomorrow, 22 October, Tuesday

    Time Temperature Precipitation Wind Pressure Humidity
    00:00 +20°C° 0 mm 4 mps 755 mmHg 66%
    01:00 +20°C° 0 mm 4 mps 754 mmHg 68%
    02:00 +19°C° 0 mm 5 mps 754 mmHg 70%
    03:00 +19°C° 0 mm 5 mps 754 mmHg 73%
    04:00 +19°C° 0 mm 5 mps 754 mmHg 76%
    05:00 +19°C° 0 mm 5 mps 754 mmHg 79%
    06:00 +19°C° 0 mm 6 mps 754 mmHg 76%
    07:00 +20°C° 0 mm 6 mps 754 mmHg 73%
    08:00 +20°C° 0 mm 7 mps 755 mmHg 71%
    09:00 +21°C° 0 mm 8 mps 755 mmHg 62%
    10:00 +22°C° 0 mm 9 mps 755 mmHg 54%
    11:00 +24°C° 0 mm 10 mps 755 mmHg 45%
    12:00 +24°C° 0 mm 10 mps 755 mmHg 46%
    13:00 +24°C° 0 mm 10 mps 754 mmHg 47%
    14:00 +24°C° 0 mm 10 mps 754 mmHg 49%
    15:00 +23°C° 0 mm 9 mps 754 mmHg 51%
    16:00 +22°C° 0 mm 8 mps 754 mmHg 53%
    17:00 +22°C° 0 mm 8 mps 754 mmHg 56%
    18:00 +21°C° 0 mm 7 mps 754 mmHg 57%
    19:00 +21°C° 0 mm 6 mps 754 mmHg 58%
    20:00 +20°C° 0 mm 6 mps 754 mmHg 60%
    21:00 +20°C° 0 mm 6 mps 754 mmHg 60%
    22:00 +20°C° 0 mm 6 mps 754 mmHg 61%
    23:00 +20°C° 0 mm 6 mps 754 mmHg 61%

    23 October, Wednesday

    Time Temperature Precipitation Wind Pressure Humidity
    00:00 +20°C° 0 mm 6 mps 754 mmHg 63%
    01:00 +20°C° 0 mm 6 mps 754 mmHg 64%
    02:00 +20°C° 0 mm 7 mps 753 mmHg 65%
    03:00 +18°C° 0 mm 7 mps 753 mmHg 65%
    04:00 +18°C° 0 mm 8 mps 753 mmHg 64%
    05:00 +18°C° 0 mm 8 mps 753 mmHg 64%
    06:00 +18°C° 0 mm 8 mps 753 mmHg 62%
    07:00 +19°C° 0 mm 9 mps 753 mmHg 60%
    08:00 +19°C° 0 mm 9 mps 754 mmHg 59%
    09:00 +21°C° 0 mm 9 mps 754 mmHg 52%
    10:00 +22°C° 0 mm 10 mps 754 mmHg 46%
    11:00 +23°C° 0 mm 11 mps 754 mmHg 39%
    12:00 +24°C° 0 mm 10 mps 754 mmHg 39%
    13:00 +24°C° 0 mm 10 mps 753 mmHg 38%
    14:00 +24°C° 0 mm 10 mps 753 mmHg 38%
    15:00 +23°C° 0 mm 9 mps 753 mmHg 42%
    16:00 +22°C° 0 mm 9 mps 753 mmHg 46%
    17:00 +22°C° 0 mm 8 mps 753 mmHg 50%
    18:00 +21°C° 0 mm 7 mps 753 mmHg 53%
    19:00 +20°C° 0 mm 6 mps 753 mmHg 55%
    20:00 +20°C° 0 mm 5 mps 753 mmHg 58%
    21:00 +20°C° 0 mm 5 mps 753 mmHg 59%
    22:00 +19°C° 0 mm 5 mps 754 mmHg 60%
    23:00 +19°C° 0 mm 5 mps 754 mmHg 61%

    24 October, Thursday

    Time Temperature Precipitation Wind Pressure Humidity
    00:00 +19°C° 0 mm 5 mps 753 mmHg 62%
    01:00 +19°C° 0 mm 5 mps 753 mmHg 63%
    02:00 +19°C° 0 mm 5 mps 753 mmHg 65%
    03:00 +17°C° 0 mm 5 mps 753 mmHg 67%
    04:00 +17°C° 0 mm 5 mps 753 mmHg 68%
    05:00 +17°C° 0 mm 5 mps 753 mmHg 70%
    06:00 +17°C° 0 mm 5 mps 753 mmHg 68%
    07:00 +17°C° 0 mm 5 mps 753 mmHg 66%
    08:00 +19°C° 0 mm 5 mps 753 mmHg 64%
    09:00 +20°C° 0 mm 5 mps 754 mmHg 57%
    10:00 +21°C° 0 mm 5 mps 754 mmHg 51%
    11:00 +23°C° 0 mm 4 mps 754 mmHg 45%
    12:00 +23°C° 0 mm 4 mps 754 mmHg 43%
    13:00 +25°C° 0 mm 4 mps 753 mmHg 41%
    14:00 +26°C° 0 mm 4 mps 753 mmHg 39%
    15:00 +25°C° 0 mm 4 mps 753 mmHg 39%
    16:00 +25°C° 0 mm 4 mps 753 mmHg 40%
    17:00 +23°C° 0 mm 4 mps 753 mmHg 40%
    18:00 +22°C° 0 mm 4 mps 753 mmHg 42%
    19:00 +21°C° 0 mm 3 mps 753 mmHg 44%
    20:00 +20°C° 0 mm 3 mps 753 mmHg 46%
    21:00 +20°C° 0 mm 3 mps 753 mmHg 45%
    22:00 +20°C° 0 mm 3 mps 753 mmHg 45%
    23:00 +19°C° 0 mm 3 mps 753 mmHg 44%

    25 October, Friday

    Time Temperature Precipitation Wind Pressure Humidity
    00:00 +19°C° 0 mm 3 mps 753 mmHg 44%
    01:00 +19°C° 0 mm 3 mps 753 mmHg 44%
    02:00 +19°C° 0 mm 3 mps 753 mmHg 45%
    03:00 +18°C° 0 mm 3 mps 753 mmHg 47%
    04:00 +18°C° 0 mm 3 mps 752 mmHg 49%
    05:00 +18°C° 0 mm 3 mps 752 mmHg 51%
    06:00 +18°C° 0 mm 3 mps 753 mmHg 52%
    07:00 +19°C° 0 mm 3 mps 753 mmHg 52%
    08:00 +19°C° 0 mm 3 mps 753 mmHg 52%
    09:00 +21°C° 0 mm 3 mps 753 mmHg 48%
    10:00 +22°C° 0 mm 3 mps 753 mmHg 43%
    11:00 +25°C° 0 mm 3 mps 753 mmHg 39%
    12:00 +25°C° 0 mm 4 mps 753 mmHg 38%
    13:00 +26°C° 0 mm 4 mps 753 mmHg 36%
    14:00 +26°C° 0 mm 4 mps 753 mmHg 35%
    15:00 +26°C° 0 mm 3 mps 752 mmHg 36%
    16:00 +25°C° 0 mm 3 mps 752 mmHg 38%
    17:00 +25°C° 0 mm 3 mps 752 mmHg 39%
    18:00 +22°C° 0 mm 3 mps 752 mmHg 43%
    19:00 +21°C° 0 mm 3 mps 752 mmHg 47%
    20:00 +20°C° 0 mm 3 mps 753 mmHg 50%
    21:00 +20°C° 0 mm 3 mps 753 mmHg 50%
    22:00 +19°C° 0 mm 3 mps 753 mmHg 49%
    23:00 +19°C° 0 mm 3 mps 753 mmHg 49%
    Show more